Weather History for Homestead AFB, FL

Change the Weather History Date:

Tuesday, January 1, 2013

  Actual Average Record
Temperature  
Mean Temperature 70 °F -  
Max Temperature 77 °F 77 °F 85 °F (1945)
Min Temperature 63 °F 57 °F 39 °F (1949)
Cooling Degree Days 6    
Growing Degree Days 20 (Base 50)    
Moisture  
Dew Point 62 °F    
Average Humidity 73    
Maximum Humidity 93    
Minimum Humidity 61    
Precipitation  
Precipitation 0.00 in - - ()
Sea Level Pressure  
Sea Level Pressure 30.13 in    
Wind  
Wind Speed 6 mph (ESE)    
Max Wind Speed 16 mph    
Max Gust Speed 18 mph    
Visibility 10 miles    
Events      
Averages and records for this station are not official NWS values.
T = Trace of Precipitation, MM = Missing Value Source: NWS Daily Summary

Daily Weather History Graph

Daily Weather History Graph

Search for Another Location

Airport:

Trip Planner

Search our weather history database for the weather conditions in past years. The results will help you decide how hot, cold, wet, or windy it might be!

Date:

Astronomy

Jan. 01, 2013 Rise Set
Actual Time 7:07 AM EST 5:42 PM EST
Civil Twilight 6:42 AM EST 6:08 PM EST
Nautical Twilight 6:14 AM EST 6:36 PM EST
Astronomical Twilight 5:46 AM EST 7:04 PM EST
Moon 9:44 PM EST (1/1) 9:44 AM EST (1/1)
Length of Visible Light 11h 25m
Length of Day
10h 35m
Waning Gibbous, 83% of the Moon is Illuminated
Jan 1
Waning Gibbous
Jan 4
Last Quarter
Jan 11
New
Jan 18
First Quarter
Jan 26
Full

Hourly Weather History & Observations

Time (EST) Temp. Dew Point Humidity Pressure Visibility Wind Dir Wind Speed Gust Speed Precip Events Conditions
12:55 AM 70.2 °F 59.2 °F 68% 30.19 in 10.0 mi ESE 4.6 mph - N/A   Mostly Cloudy
1:55 AM 70.2 °F 60.1 °F 70% 30.19 in 10.0 mi ESE 6.9 mph - N/A   Overcast
2:55 AM 70.0 °F 59.5 °F 69% 30.18 in 10.0 mi East 4.6 mph - N/A   Overcast
3:55 AM 69.1 °F 60.4 °F 74% 30.18 in 10.0 mi Calm Calm - N/A   Scattered Clouds
4:55 AM 69.8 °F 60.3 °F 72% 30.18 in 10.0 mi East 6.9 mph - N/A   Overcast
5:55 AM 70.3 °F 59.4 °F 68% 30.16 in 10.0 mi East 6.9 mph - N/A   Mostly Cloudy
6:55 AM 69.3 °F 58.8 °F 69% 30.15 in 10.0 mi ESE 8.1 mph - N/A   Scattered Clouds
7:55 AM 71.1 °F 58.1 °F 63% 30.17 in 10.0 mi ESE 5.8 mph - N/A   Mostly Cloudy
8:55 AM 73.4 °F 59.7 °F 62% 30.17 in 10.0 mi ESE 6.9 mph - N/A   Scattered Clouds
9:55 AM 74.5 °F 60.3 °F 61% 30.19 in 10.0 mi SE 9.2 mph - N/A   Scattered Clouds
10:55 AM 75.4 °F 61.5 °F 62% 30.18 in 10.0 mi SE 11.5 mph 18.4 mph N/A   Mostly Cloudy
11:55 AM 76.5 °F 61.9 °F 61% 30.16 in 10.0 mi SE 12.7 mph - N/A   Scattered Clouds
12:55 PM 76.3 °F 62.4 °F 62% 30.12 in 10.0 mi SE 16.1 mph - N/A   Scattered Clouds
1:55 PM 77.9 °F 64.0 °F 62% 30.09 in 10.0 mi SE 13.8 mph - N/A   Partly Cloudy
2:55 PM 76.5 °F 64.2 °F 66% 30.08 in 10.0 mi SSE 11.5 mph - N/A   Partly Cloudy
3:55 PM 75.6 °F 64.6 °F 69% 30.08 in 10.0 mi SE 9.2 mph - N/A   Mostly Cloudy
4:55 PM 75.9 °F 64.8 °F 68% 30.07 in 10.0 mi SSE 6.9 mph - N/A   Mostly Cloudy
5:55 PM 71.2 °F 64.0 °F 78% 30.07 in 10.0 mi ESE 3.5 mph - N/A   Clear
6:55 PM 67.6 °F 63.9 °F 88% 30.08 in 10.0 mi East 3.5 mph - N/A   Clear
7:55 PM 65.8 °F 63.1 °F 91% 30.08 in 10.0 mi East 3.5 mph - N/A   Clear
8:55 PM 64.4 °F 61.7 °F 91% 30.10 in 10.0 mi North 3.5 mph - N/A   Clear
9:55 PM 64.2 °F 62.2 °F 93% 30.10 in 10.0 mi Calm Calm - N/A   Clear
10:55 PM 64.2 °F 61.9 °F 92% 30.10 in 10.0 mi Calm Calm - N/A   Clear
11:55 PM 63.9 °F 61.9 °F 93% 30.09 in 10.0 mi Calm Calm - N/A   Partly Cloudy